This is the latest recevied weather packets stored in our database for station/object NY5V. If no packets are shown the sender has not sent any weather packets the latest 10 day(s).
| Time | Temp. | Humidity | Pressure | Rain* | Wind** | Luminosity | Snow |
|---|---|---|---|---|---|---|---|
| 1777576706 | 15.56° C | 99% | 1013.5 hPa | 0 mm | - | 75 W/m² | - |
| 1777576101 | 16.11° C | 99% | 1013.6 hPa | 0 mm | - | 67 W/m² | - |
| 1777575499 | 15.56° C | 99% | 1014 hPa | 0 mm | - | 75 W/m² | - |
| 1777574897 | 16.11° C | 99% | 1013.5 hPa | 0 mm | - | 94 W/m² | - |
| 1777574296 | 16.11° C | 99% | 1013.7 hPa | 0 mm | - | 150 W/m² | - |
| 1777573693 | 16.11° C | 99% | 1014.3 hPa | 1.78 mm | - | 124 W/m² | - |
| 1777573091 | 16.11° C | 99% | 1015.3 hPa | 3.05 mm | - | 90 W/m² | - |
| 1777572488 | 16.11° C | 98% | 1016 hPa | 3.05 mm | - | 34 W/m² | - |
| 1777571885 | 16.11° C | 97% | 1016 hPa | 8.89 mm | - | 31 W/m² | - |
| 1777571284 | 16.67° C | 93% | 1015.6 hPa | 1.78 mm | - | 18 W/m² | - |
| 1777570682 | 16.67° C | 91% | 1015.1 hPa | 0 mm | - | 13 W/m² | - |
| 1777570080 | 16.67° C | 91% | 1014.4 hPa | 0 mm | - | 22 W/m² | - |
| 1777569478 | 16.67° C | 91% | 1014.7 hPa | 0 mm | - | 22 W/m² | - |
| 1777568877 | 16.67° C | 91% | 1014.5 hPa | 0 mm | - | 60 W/m² | - |
| 1777568271 | 17.22° C | 91% | 1014.1 hPa | 0 mm | - | 63 W/m² | - |
| 1777567670 | 17.22° C | 91% | 1014.4 hPa | 0 mm | - | 68 W/m² | - |
| 1777567065 | 17.22° C | 91% | 1014.3 hPa | 0 mm | - | 54 W/m² | - |
| 1777566461 | 17.22° C | 90% | 1014.2 hPa | 0 mm | - | 145 W/m² | - |
| 1777565859 | 17.22° C | 91% | 1014.1 hPa | 0 mm | - | 143 W/m² | - |
| 1777565258 | 16.67° C | 92% | 1014.1 hPa | 0 mm | - | 127 W/m² | - |
| 1777564656 | 16.67° C | 93% | 1014.4 hPa | 0 mm | - | 94 W/m² | - |
| 1777564053 | 16.11° C | 94% | 1014.3 hPa | 0 mm | - | 59 W/m² | - |
| 1777563452 | 16.11° C | 94% | 1014.1 hPa | 0 mm | - | 43 W/m² | - |
| 1777562847 | 16.11° C | 95% | 1014.1 hPa | 0 mm | - | 43 W/m² | - |
| 1777562243 | 16.11° C | 95% | 1014.2 hPa | 0 mm | - | 38 W/m² | - |
* Rain latest hour (hover to see other rain measurements)
** Current wind speed in m/s (hover to see current wind gust speed)